STARLINK-33820, 63584

Orbit data source: Space-Track

STARLINK-33820, 63584 is a payload satellite owned by SpaceX/Seattle (US) in LEO that was launched on Mon, 14 Apr 2025 UTC via an FALCON 9 launch vehicle from the Air Force Eastern Test Range (AFETR). Payload-class satellites include a variety of spacecraft equipped with specific instruments for various scientific and technological missions. These include communications satellites like Starlink; space stations such as the ISS; scientific satellites like the Hubble; Earth observation satellites from companies like Planet Labs, Umbra, and HawkEye 360; GPS; miniature CubeSats for education and research; and military/defense satellites.

Loading next visibility...
Identifier
63584, 2025-076R
Orbit
LEO
Country
Flag of USUS
Related business
Manufacturer
SpaceX/Seattle
Mission
Operational Commercial Communications
Bus & Motor
STARLINK V2MO, Unknown motor
Mass
575 kg wet, ~530 kg dry
Launch date (UTC)
2025-04-14 (6 months ago)
Launch vehicle
FALCON 9
Launch site
Air Force Eastern Test Range (AFETR)
Object type
Payload
Rocket body
Debris
Shape & HBR
Box + 2 Pan, 17.7 m
Radar Cross Section
36.964 m², Large (>1 m²)

Expand to show TLE details & history
Last TLE update: 19 hours ago

TLE from 19 hours ago
0 STARLINK-33820
1 63584U 25076R   25286.68841107  .00042334  00000-0  15380-2 0  9999
2 63584  43.0001  71.4276 0001348 259.3627 100.7073 15.27603095 29358
Epoch: 2025-10-13T16:31Z
TLE epoch observation values (Epoch: 2025-10-13T16:31:18.716Z)
Latitude
-0.00001°
Longitude
161.11201°
Altitude
482.927 km
Speed
7.626 km/s
True Right ascension
04h 45m 42s
True Declination
0° 00' 00"
Sunlit
Object was in full shadow at epoch
Visualization orbit readout
Latitude
Unknown
Longitude
Unknown
Altitude
Unknown
Speed
Unknown
Apparent Right ascension
Unknown
Apparent Declination
Unknown
Sunlit
N/A
Visualization observer readout
Local Sidereal Time
06:27:27
Azimuth
Unknown
Elevation
Unknown
Doppler factor
Unknown
Orbital elements
Apogee altitude
485.85 km
Perigee altitude
484 km
Semi-major axis
6,863.062 km
Eccentricity
0.00013
Inclination
43.0001°
RAAN
71.4276°
Arg. of periapsis
259.3627°
True anomaly
100.72248°
Mean anomaly
100.7073°
Eccentric anomaly
100.71489°
Mean motion
3.81739 °/min
Orbital period
94.31 mins
BSTAR
0.001538
Loading maneuver chart data...
Computing Atmospheric mass density...
Loading historical data...
Loading historical data...
Loading historical data...
Loading historical data...
Loading historical data...
Loading historical data...
Loading historical data...

Documentation

Showing up to 5 results
|